TimeCST,TemperatureF,Dew PointF,Humidity,Sea Level PressureIn,VisibilityMPH,Wind Direction,Wind SpeedMPH,Gust SpeedMPH,PrecipitationIn,Events,Conditions,WindDirDegrees,DateUTC
12:15 AM,39.2,33.8,81,30.08,10.0,NNE,4.6,-,N/A,,Overcast,30,2014-03-05 06:15:00
12:35 AM,41.0,35.6,81,30.09,10.0,NE,3.5,-,N/A,,Overcast,40,2014-03-05 06:35:00
12:55 AM,41.0,35.6,81,30.08,10.0,NE,10.4,-,N/A,,Overcast,40,2014-03-05 06:55:00
1:15 AM,41.0,35.6,81,30.06,10.0,NE,3.5,-,N/A,,Overcast,40,2014-03-05 07:15:00
1:35 AM,41.0,35.6,81,30.07,10.0,NE,3.5,-,N/A,,Overcast,50,2014-03-05 07:35:00
1:55 AM,41.0,35.6,81,30.07,10.0,NNE,4.6,-,N/A,,Overcast,20,2014-03-05 07:55:00
2:15 AM,41.0,35.6,81,30.06,10.0,NE,4.6,-,N/A,,Overcast,50,2014-03-05 08:15:00
2:35 AM,41.0,35.6,81,30.07,10.0,Calm,Calm,-,N/A,,Overcast,0,2014-03-05 08:35:00
2:55 AM,41.0,35.6,81,30.06,10.0,North,5.8,-,N/A,,Overcast,10,2014-03-05 08:55:00
3:15 AM,41.0,35.6,81,30.06,10.0,North,4.6,-,N/A,,Overcast,360,2014-03-05 09:15:00
3:35 AM,41.0,35.6,81,30.06,9.0,NNE,4.6,-,N/A,,Overcast,20,2014-03-05 09:35:00
3:55 AM,42.8,37.4,81,30.06,9.0,North,5.8,-,N/A,,Overcast,10,2014-03-05 09:55:00
4:15 AM,42.8,37.4,81,30.06,10.0,NNE,8.1,-,N/A,,Overcast,20,2014-03-05 10:15:00
4:35 AM,42.8,37.4,81,30.06,6.0,NNE,6.9,-,N/A,,Overcast,30,2014-03-05 10:35:00
4:55 AM,42.8,37.4,81,30.07,7.0,North,5.8,-,N/A,,Overcast,10,2014-03-05 10:55:00
5:15 AM,42.8,37.4,81,30.08,5.0,North,6.9,-,N/A,,Overcast,10,2014-03-05 11:15:00
5:35 AM,42.8,37.4,81,30.07,5.0,NNE,6.9,-,N/A,,Overcast,20,2014-03-05 11:35:00
5:55 AM,42.8,37.4,81,30.07,3.0,NNE,5.8,-,N/A,,Overcast,20,2014-03-05 11:55:00
6:15 AM,42.8,37.4,81,30.08,5.0,NNE,5.8,-,N/A,,Overcast,30,2014-03-05 12:15:00
6:35 AM,42.8,37.4,81,30.08,5.0,NE,5.8,-,N/A,,Overcast,40,2014-03-05 12:35:00
6:55 AM,42.8,37.4,81,30.08,2.5,NE,4.6,-,N/A,,Overcast,50,2014-03-05 12:55:00
7:15 AM,42.8,37.4,81,30.08,3.0,NNE,4.6,-,N/A,,Overcast,30,2014-03-05 13:15:00
7:35 AM,42.8,37.4,81,30.08,6.0,NNE,4.6,-,N/A,,Overcast,30,2014-03-05 13:35:00
7:55 AM,42.8,37.4,81,30.08,8.0,NE,6.9,-,N/A,,Overcast,50,2014-03-05 13:55:00
8:15 AM,44.6,39.2,81,30.08,9.0,Calm,Calm,-,N/A,,Overcast,0,2014-03-05 14:15:00
8:35 AM,44.6,39.2,81,30.08,9.0,NE,6.9,-,N/A,,Overcast,50,2014-03-05 14:35:00
8:55 AM,44.6,39.2,81,30.08,10.0,ENE,4.6,-,N/A,,Overcast,70,2014-03-05 14:55:00
9:15 AM,46.4,39.2,76,30.08,10.0,NE,6.9,-,N/A,,Overcast,50,2014-03-05 15:15:00
9:35 AM,46.4,41.0,81,30.08,10.0,East,6.9,-,N/A,,Overcast,100,2014-03-05 15:35:00
9:55 AM,48.2,42.8,82,30.08,10.0,NNE,5.8,-,N/A,,Overcast,30,2014-03-05 15:55:00
10:15 AM,48.2,42.8,82,30.09,10.0,ENE,3.5,-,N/A,,Overcast,70,2014-03-05 16:15:00
10:35 AM,48.2,42.8,82,30.07,10.0,NE,5.8,-,N/A,,Overcast,40,2014-03-05 16:35:00
10:55 AM,48.2,42.8,82,30.08,10.0,NE,8.1,-,N/A,,Overcast,50,2014-03-05 16:55:00
11:15 AM,50.0,44.6,82,30.08,10.0,ENE,3.5,-,N/A,,Overcast,60,2014-03-05 17:15:00
11:35 AM,50.0,44.6,82,30.08,7.0,Calm,Calm,-,N/A,,Overcast,0,2014-03-05 17:35:00
11:55 AM,50.0,44.6,82,30.08,4.0,NE,6.9,-,N/A,,Overcast,50,2014-03-05 17:55:00
12:15 PM,50.0,44.6,82,30.07,4.0,ENE,5.8,-,N/A,,Overcast,60,2014-03-05 18:15:00
12:35 PM,50.0,44.6,82,30.07,5.0,NE,4.6,-,N/A,,Overcast,50,2014-03-05 18:35:00
12:55 PM,50.0,44.6,82,30.06,5.0,ENE,4.6,-,N/A,,Overcast,60,2014-03-05 18:55:00
1:35 PM,51.8,44.6,76,30.03,5.0,NE,6.9,-,N/A,,Overcast,40,2014-03-05 19:35:00
1:55 PM,51.8,44.6,76,30.02,6.0,North,5.8,-,N/A,,Overcast,350,2014-03-05 19:55:00
2:15 PM,51.8,44.6,76,30.01,7.0,North,5.8,-,N/A,,Overcast,360,2014-03-05 20:15:00
2:35 PM,51.8,44.6,76,30.01,8.0,North,5.8,-,N/A,,Overcast,10,2014-03-05 20:35:00
2:55 PM,51.8,46.4,82,30.01,8.0,NNE,8.1,-,N/A,,Overcast,20,2014-03-05 20:55:00
3:15 PM,53.6,46.4,77,30.01,9.0,North,3.5,-,N/A,,Overcast,10,2014-03-05 21:15:00
3:35 PM,53.6,46.4,77,30.00,10.0,NNE,8.1,-,N/A,,Overcast,30,2014-03-05 21:35:00
3:55 PM,53.6,46.4,77,30.00,10.0,East,4.6,-,N/A,,Overcast,100,2014-03-05 21:55:00
4:15 PM,53.6,46.4,77,29.99,10.0,NE,5.8,-,N/A,,Overcast,40,2014-03-05 22:15:00
4:35 PM,55.4,46.4,72,29.99,10.0,NNE,5.8,-,N/A,,Overcast,30,2014-03-05 22:35:00
4:55 PM,55.4,46.4,72,30.00,10.0,NNE,6.9,-,N/A,,Overcast,30,2014-03-05 22:55:00
5:15 PM,55.4,46.4,72,30.00,10.0,East,5.8,-,N/A,,Overcast,90,2014-03-05 23:15:00
5:35 PM,55.4,46.4,72,30.01,10.0,East,4.6,-,N/A,,Overcast,90,2014-03-05 23:35:00
5:55 PM,55.4,46.4,72,30.02,10.0,East,3.5,-,N/A,,Overcast,90,2014-03-05 23:55:00
6:15 PM,55.4,46.4,72,30.03,10.0,East,3.5,-,N/A,,Overcast,100,2014-03-06 00:15:00
6:35 PM,55.4,46.4,72,30.02,10.0,Calm,Calm,-,N/A,,Overcast,0,2014-03-06 00:35:00
6:55 PM,55.4,46.4,72,30.03,10.0,East,3.5,-,N/A,,Overcast,80,2014-03-06 00:55:00
7:15 PM,55.4,46.4,72,30.03,10.0,NE,4.6,-,N/A,,Overcast,50,2014-03-06 01:15:00
7:35 PM,55.4,48.2,77,30.04,10.0,NE,4.6,-,N/A,,Overcast,40,2014-03-06 01:35:00
7:55 PM,55.4,48.2,77,30.04,10.0,NNE,3.5,-,N/A,,Overcast,20,2014-03-06 01:55:00
8:15 PM,55.4,48.2,77,30.03,10.0,NNE,4.6,-,N/A,,Overcast,30,2014-03-06 02:15:00
8:35 PM,55.4,46.4,72,30.03,10.0,North,5.8,-,N/A,,Overcast,10,2014-03-06 02:35:00
8:55 PM,55.4,46.4,72,30.05,10.0,NNE,3.5,-,N/A,,Overcast,20,2014-03-06 02:55:00
9:15 PM,53.6,48.2,82,30.06,5.0,NNE,5.8,-,0.08,,Overcast,20,2014-03-06 03:15:00
9:35 PM,53.6,48.2,82,30.04,6.0,NNE,4.6,-,0.15,,Overcast,20,2014-03-06 03:35:00
9:55 PM,53.6,48.2,82,30.04,8.0,NNE,6.9,-,0.16,,Overcast,20,2014-03-06 03:55:00
10:15 PM,53.6,46.4,77,30.03,10.0,North,6.9,-,N/A,,Mostly Cloudy,10,2014-03-06 04:15:00
10:35 PM,53.6,46.4,77,30.03,10.0,North,5.8,-,N/A,,Overcast,10,2014-03-06 04:35:00
10:55 PM,53.6,46.4,77,30.03,10.0,NNE,3.5,-,N/A,,Overcast,30,2014-03-06 04:55:00
11:15 PM,51.8,46.4,82,30.02,9.0,NNE,5.8,-,0.01,,Overcast,20,2014-03-06 05:15:00
11:35 PM,51.8,46.4,82,30.01,7.0,NNE,3.5,-,0.02,,Overcast,20,2014-03-06 05:35:00
11:55 PM,51.8,46.4,82,29.99,9.0,North,6.9,-,0.02,,Overcast,10,2014-03-06 05:55:00